Home   Weather   Limón   Past weeks

Flag for Costa Rica Past Weather in Limón, Costa Rica — Yesterday and Last 2 Weeks

Now
66 °F

Clear.


Feels Like: 66 °F
Forecast: 73 / 82 °F
Wind: 9 mph from East

Location: Juan Santamaria

Current Time: Jan 20, 2017 at 4:04:15 am

Latest Report: Jan 20, 2017 at 3:00 am


Visibility: 10 mi

Pressure: 29.98 "Hg

Humidity: 73%

Dew Point: 57 °F

Location of LimónLocation

Past Weather in Limón — Graph

°F

Limón Temperature Yesterday

Maximum temperature yesterday: 84 °F (at 11:00 am)
Minimum temperature yesterday: 64 °F (at 1:00 am)
Average temperature yesterday: 72 °F

High & Low Weather Summary for the Past Weeks

 TemperatureHumidityPressure
High84 °F (Jan 5, 1:00 pm)94% (Jan 5, 7:00 pm)30.10 "Hg (Jan 5, 7:00 pm)
Low63 °F (Jan 17, 6:00 am)32% (Jan 15, 2:00 pm)29.88 "Hg (Jan 5, 3:00 pm)
Average73 °F62%29.99 "Hg
* Reported Jan 5 3:00 am — Jan 20 3:00 am, Limón, Weather by CustomWeather, © 2017

Note: Actual official high and low records may vary slightly from our data, if they occured in-between our weather recording intervals... More about our weather records

Advertising

Limón Weather History for the Previous 24 Hours

Scroll right to see more
 ConditionsComfort  
Time TempWeatherWind HumidityBarometerVisibility
3:00 am
Fri, Jan 20
66 °FClear.9 mph73%29.98 "Hg10 mi
2:00 am66 °FClear.8 mph78%29.99 "Hg10 mi
1:00 am66 °FClear.8 mph78%30.01 "Hg10 mi
12:00 am66 °FClear.9 mph83%30.03 "Hg10 mi
11:00 pm
Thu, Jan 19
68 °FClear.9 mph78%30.05 "Hg10 mi
10:00 pm68 °FClear.6 mph83%30.06 "Hg10 mi
9:00 pm70 °FClear.5 mph78%30.06 "Hg10 mi
8:00 pm70 °FPassing clouds.2 mph83%30.05 "HgN/A
7:00 pm70 °FPassing clouds.2 mph83%30.03 "HgN/A
6:00 pm72 °FPassing clouds.7 mph78%30.00 "HgN/A
5:00 pm73 °FScattered clouds.8 mph78%29.97 "HgN/A
4:00 pm77 °FScattered clouds.13 mph69%29.96 "HgN/A
3:00 pm81 °FWarm.N/A58%29.94 "HgN/A
2:00 pm81 °FWarm.N/A58%29.95 "HgN/A
1:00 pm82 °FPassing clouds.10 mph51%29.97 "HgN/A
12:00 pm82 °FSunny.12 mph48%30.01 "Hg10 mi
11:00 am84 °FSunny.7 mph33%30.03 "Hg10 mi
10:00 am81 °FSunny.9 mph39%30.05 "Hg10 mi
9:00 am79 °FSunny.10 mph39%30.05 "Hg10 mi
8:00 am75 °FSunny.8 mph47%30.04 "Hg10 mi
7:00 am66 °FSunny.3 mph68%30.02 "Hg10 mi
6:00 am64 °FSunny.7 mph68%30.00 "Hg10 mi
5:00 am64 °FClear.9 mph60%29.98 "Hg10 mi
4:00 am64 °FClear.9 mph64%29.97 "Hg10 mi
Weather by CustomWeather, © 2017

See weather overviewHow to use our weather pages